Location: Unspecified
(49.2170°N, 0.0000°E)
Time: 03:46:08
(UTC+00:00)

Transit 4A - Pass Details

Date: 19 June 2019
Orbit: 866 x 978 km, 66.8° (Epoch: 13 October)

Event Time Altitude Azimuth Distance (km) Brightness Sun altitude
Rises 19:18:13 0° 312° (NW) 3,681 13.1 6.0°
Reaches altitude 10° 19:22:08 10° 289° (WNW) 2,716 12.5 5.4°
Maximum altitude 19:25:13 14° 259° (W) 2,411 10.9 5.0°
Drops below altitude 10° 19:28:16 10° 230° (SW) 2,679 10.6 4.5°
Sets 19:32:06 0° 206° (SSW) 3,596 10.9 4.0°
